Superior, WI

9:25 AM CDT on June 24, 2017 (GMT -0500)
Bong

Weather History for KSUW - March, 2013

Change the Weather History Date:

Friday, March 1, 2013

  Actual Average Record
Temperature  
Mean Temperature 12 °F -  
Max Temperature 24 °F 32 °F 52 °F (1990)
Min Temperature 0 °F 13 °F -38 °F (1962)
Degree Days  
Heating Degree Days 52    
Moisture  
Dew Point 12 °F    
Average Humidity 76    
Maximum Humidity 92    
Minimum Humidity 68    
Precipitation  
Precipitation 0.00 in - - ()
Sea Level Pressure  
Sea Level Pressure 30.38 in    
Wind  
Wind Speed 9 mph (ENE)    
Max Wind Speed 16 mph    
Max Gust Speed 23 mph    
Visibility 10 miles    
Events Snow    
Averages and records for this station are not official NWS values.
T = Trace of Precipitation, MM = Missing Value Source: NWS Daily Summary

Daily Weather History Graph

Daily Weather History Graph

Search for Another Location

Airport or City:

Trip Planner

Search our weather history database for the weather conditions in past years. The results will help you decide how hot, cold, wet, or windy it might be!

Date:

Astronomy

Mar. 01, 2013 Rise Set
Actual Time 6:47 AM CST 5:54 PM CST
Civil Twilight 6:17 AM CST 6:24 PM CST
Nautical Twilight 5:42 AM CST 7:00 PM CST
Astronomical Twilight 5:06 AM CST 7:35 PM CST
Moon 10:49 PM CST (3/1) 8:16 AM CST (3/1)
Length of Visible Light 12h 07m
Length of Day
11h 07m
Waning Gibbous, 83% of the Moon is Illuminated
Mar 1
Waning Gibbous
Mar 4
Last Quarter
Mar 11
New
Mar 19
First Quarter
Mar 27
Full

Hourly Weather History & Observations

Time (CST) Temp. Windchill Dew Point Humidity Pressure Visibility Wind Dir Wind Speed Gust Speed Precip Events Conditions
12:15 AM 22.1 °F 13.7 °F 13.1 °F 68% 30.29 in 10.0 mi East 6.9 mph - N/A   Mostly Cloudy
12:35 AM 22.8 °F 12.2 °F 14.0 °F 69% 30.30 in 10.0 mi East 10.4 mph - N/A   Mostly Cloudy
12:55 AM 23.2 °F 13.3 °F 14.0 °F 68% 30.30 in 10.0 mi East 9.2 mph 19.6 mph N/A   Mostly Cloudy
1:15 AM 23.4 °F 12.8 °F 14.4 °F 68% 30.30 in 10.0 mi East 10.4 mph - N/A   Overcast
1:35 AM 24.3 °F 12.7 °F 15.3 °F 69% 30.31 in 10.0 mi East 12.7 mph 20.7 mph N/A   Overcast
1:55 AM 23.0 °F 12.4 °F 14.4 °F 70% 30.30 in 10.0 mi East 10.4 mph - N/A   Overcast
2:15 AM 23.0 °F 12.4 °F 14.5 °F 70% 30.31 in 10.0 mi East 10.4 mph - N/A   Overcast
2:35 AM 23.0 °F 12.4 °F 14.9 °F 71% 30.31 in 10.0 mi East 10.4 mph - N/A   Overcast
3:15 AM 23.0 °F 13.9 °F 15.1 °F 72% 30.32 in 10.0 mi East 8.1 mph - N/A   Overcast
3:35 AM 23.0 °F 12.4 °F 15.8 °F 74% 30.32 in 10.0 mi ENE 10.4 mph 17.3 mph N/A   Overcast
4:15 AM 22.8 °F 13.6 °F 14.9 °F 72% 30.32 in 10.0 mi East 8.1 mph - N/A   Overcast
4:35 AM 22.6 °F 12.6 °F 15.1 °F 73% 30.33 in 10.0 mi East 9.2 mph - N/A   Overcast
4:55 AM 22.6 °F 13.4 °F 15.4 °F 74% 30.33 in 10.0 mi East 8.1 mph - N/A   Overcast
5:15 AM 22.1 °F 11.3 °F 15.1 °F 74% 30.34 in 10.0 mi East 10.4 mph - N/A   Overcast
5:35 AM 22.1 °F 12.8 °F 14.9 °F 74% 30.34 in 10.0 mi East 8.1 mph - N/A   Overcast
5:55 AM 22.5 °F 11.7 °F 15.8 °F 76% 30.36 in 10.0 mi ENE 10.4 mph - N/A   Overcast
6:15 AM 21.2 °F 10.9 °F 14.9 °F 77% 30.36 in 10.0 mi NE 9.2 mph 19.6 mph N/A   Overcast
6:35 AM 20.3 °F 8.3 °F 13.6 °F 75% 30.36 in 10.0 mi NE 11.5 mph 18.4 mph N/A   Overcast
6:55 AM 19.8 °F 9.9 °F 13.1 °F 75% 30.37 in 10.0 mi NE 8.1 mph 16.1 mph N/A   Overcast
7:35 AM 19.4 °F 7.2 °F 12.6 °F 75% 30.39 in 10.0 mi NE 11.5 mph 17.3 mph N/A   Overcast
8:15 AM 19.2 °F 7.7 °F 12.6 °F 75% 30.40 in 10.0 mi NE 10.4 mph 16.1 mph N/A   Overcast
8:35 AM 19.2 °F 7.0 °F 12.7 °F 76% 30.40 in 10.0 mi NE 11.5 mph 16.1 mph N/A   Overcast
8:55 AM 19.2 °F 7.0 °F 12.9 °F 76% 30.40 in 10.0 mi NNE 11.5 mph 18.4 mph N/A   Overcast
9:15 AM 19.2 °F 6.4 °F 12.9 °F 76% 30.40 in 10.0 mi NE 12.7 mph 19.6 mph N/A Snow Light Snow
9:35 AM 19.2 °F 7.0 °F 12.9 °F 76% 30.41 in 10.0 mi NE 11.5 mph 19.6 mph N/A Snow Light Snow
9:55 AM 19.8 °F 6.5 °F 13.6 °F 77% 30.41 in 10.0 mi NE 13.8 mph 18.4 mph N/A   Overcast
10:15 AM 19.8 °F 7.7 °F 13.8 °F 78% 30.41 in 7.0 mi NE 11.5 mph 18.4 mph N/A Snow Light Snow
10:35 AM 20.3 °F 8.3 °F 14.5 °F 78% 30.42 in 7.0 mi NE 11.5 mph 16.1 mph N/A Snow Light Snow
11:15 AM 21.7 °F 9.0 °F 15.1 °F 76% 30.42 in 10.0 mi ENE 13.8 mph 20.7 mph N/A Snow Light Snow
11:35 AM 21.7 °F 9.6 °F 15.1 °F 76% 30.42 in 10.0 mi ENE 12.7 mph 21.9 mph N/A Snow Light Snow
12:15 PM 21.9 °F 9.2 °F 14.9 °F 74% 30.41 in 7.0 mi ENE 13.8 mph 19.6 mph N/A Snow Light Snow
12:35 PM 21.6 °F 8.2 °F 14.4 °F 74% 30.41 in 10.0 mi NE 15.0 mph 20.7 mph N/A Snow Light Snow
12:55 PM 21.2 °F 7.8 °F 14.0 °F 74% 30.41 in 10.0 mi ENE 15.0 mph 23.0 mph N/A Snow Light Snow
1:15 PM 21.4 °F 7.5 °F 14.2 °F 74% 30.41 in 7.0 mi NE 16.1 mph 21.9 mph N/A Snow Light Snow
1:35 PM 21.9 °F 8.7 °F 14.9 °F 74% 30.41 in 7.0 mi ENE 15.0 mph 20.7 mph N/A Snow Light Snow
1:55 PM 21.2 °F 8.9 °F 14.7 °F 76% 30.40 in 7.0 mi NE 12.7 mph 18.4 mph N/A Snow Light Snow
2:15 PM 21.7 °F 11.5 °F 14.9 °F 75% 30.40 in 7.0 mi NE 9.2 mph 18.4 mph N/A Snow Light Snow
2:35 PM 21.6 °F 9.9 °F 14.9 °F 76% 30.41 in 7.0 mi NE 11.5 mph 18.4 mph N/A Snow Light Snow
2:55 PM 21.6 °F 10.6 °F 14.7 °F 75% 30.41 in 7.0 mi NE 10.4 mph 19.6 mph N/A Snow Light Snow
3:15 PM 21.9 °F 9.8 °F 14.7 °F 74% 30.41 in 7.0 mi ENE 12.7 mph 18.4 mph N/A Snow Light Snow
3:35 PM 21.7 °F 11.5 °F 14.2 °F 73% 30.40 in 10.0 mi ENE 9.2 mph - N/A   Overcast
3:55 PM 21.2 °F 10.9 °F 13.3 °F 72% 30.41 in 10.0 mi ENE 9.2 mph 18.4 mph N/A   Overcast
4:15 PM 21.2 °F 10.9 °F 13.1 °F 71% 30.41 in 10.0 mi NE 9.2 mph 16.1 mph N/A   Overcast
4:35 PM 21.6 °F 11.3 °F 12.7 °F 69% 30.42 in 10.0 mi NE 9.2 mph - N/A   Mostly Cloudy
4:55 PM 20.5 °F 10.0 °F 12.4 °F 71% 30.42 in 10.0 mi NE 9.2 mph - N/A   Mostly Cloudy
5:15 PM 20.7 °F 11.9 °F 11.7 °F 68% 30.41 in 10.0 mi ENE 6.9 mph - N/A   Scattered Clouds
5:35 PM 20.7 °F 11.9 °F 12.0 °F 69% 30.41 in 10.0 mi ENE 6.9 mph - N/A   Clear
5:55 PM 20.1 °F 12.3 °F 11.5 °F 69% 30.41 in 10.0 mi NE 5.8 mph - N/A   Clear
6:15 PM 19.4 °F 12.8 °F 10.6 °F 69% 30.41 in 10.0 mi NNE 4.6 mph - N/A   Clear
6:35 PM 18.5 °F 9.3 °F 11.3 °F 73% 30.40 in 10.0 mi ENE 6.9 mph - N/A   Clear
6:55 PM 18.5 °F 13.3 °F 11.3 °F 73% 30.41 in 10.0 mi NNE 3.5 mph - N/A   Clear
7:15 PM 17.4 °F 12.1 °F 11.7 °F 78% 30.41 in 10.0 mi NNE 3.5 mph - N/A   Clear
7:35 PM 16.9 °F 9.8 °F 11.1 °F 78% 30.40 in 10.0 mi NE 4.6 mph - N/A   Clear
7:55 PM 12.7 °F 5.0 °F 10.0 °F 89% 30.41 in 10.0 mi North 4.6 mph - N/A   Clear
8:15 PM 15.6 °F 8.3 °F 11.1 °F 82% 30.40 in 10.0 mi NNE 4.6 mph - N/A   Clear
8:35 PM 14.5 °F 8.8 °F 9.9 °F 82% 30.40 in 10.0 mi East 3.5 mph - N/A   Clear
8:55 PM 15.8 °F - 10.2 °F 79% 30.40 in 10.0 mi Calm Calm - N/A   Clear
9:15 PM 14.9 °F 9.2 °F 9.9 °F 80% 30.40 in 10.0 mi ENE 3.5 mph - N/A   Clear
9:35 PM 8.6 °F - 6.4 °F 91% 30.40 in 10.0 mi Calm Calm - N/A   Clear
9:55 PM 5.2 °F -1.9 °F 1.9 °F 86% 30.39 in 10.0 mi East 3.5 mph - N/A   Clear
10:15 PM 5.2 °F - 2.3 °F 88% 30.39 in 10.0 mi Calm Calm - N/A   Clear
10:35 PM 5.2 °F - 2.7 °F 89% 30.39 in 10.0 mi Calm Calm - N/A   Clear
10:55 PM 5.4 °F -1.7 °F 3.4 °F 92% 30.39 in 10.0 mi NW 3.5 mph - N/A   Clear
11:15 PM 3.2 °F -4.2 °F 0.3 °F 88% 30.38 in 10.0 mi West 3.5 mph - N/A   Clear
11:35 PM 1.9 °F -5.6 °F -0.2 °F 91% 30.38 in 10.0 mi WNW 3.5 mph - N/A   Clear
11:55 PM 0.1 °F - -2.7 °F 88% 30.38 in 10.0 mi Calm Calm - N/A   Clear